| time (UTC) | temp F | wind direction | speed knots | gust knots | rain 1hr in | rain 24hr in | rain mn in | humidity % | barometer mb |
| 20260507055831 | 46 | 344 | 5.2 | 9.6 | 0.00 | 0.79 | 0.16 | 95 | 1010.1 |
| 20260507055314 | 46 | 11 | 5.2 | 9.6 | 0.00 | 0.79 | 0.16 | 95 | 1010.0 |
| 20260507054815 | 46 | 21 | 3.5 | 8.7 | 0.00 | 0.79 | 0.16 | 95 | 1009.9 |
| 20260507054316 | 46 | 18 | 3.5 | 9.6 | 0.04 | 0.79 | 0.16 | 95 | 1009.9 |
| 20260507053819 | 46 | 24 | 4.3 | 9.6 | 0.04 | 0.79 | 0.16 | 95 | 1009.8 |
| 20260507053322 | 46 | 25 | 2.6 | 7.0 | 0.04 | 0.79 | 0.16 | 95 | 1009.8 |
| 20260507052911 | 46 | 56 | 2.6 | 7.0 | 0.04 | 0.79 | 0.16 | 95 | 1009.8 |
| 20260507052349 | 46 | 345 | 3.5 | 7.0 | 0.04 | 0.79 | 0.16 | 95 | 1009.8 |
| 20260507051830 | 46 | 27 | 2.6 | 7.0 | 0.04 | 0.79 | 0.16 | 95 | 1009.7 |
| 20260507051332 | 46 | 30 | 2.6 | 7.0 | 0.04 | 0.79 | 0.16 | 95 | 1009.7 |
| 20260507050814 | 46 | 43 | 3.5 | 7.0 | 0.08 | 0.79 | 0.16 | 95 | 1009.6 |
| 20260507050338 | 46 | 52 | 3.5 | 6.1 | 0.08 | 0.79 | 0.16 | 95 | 1009.6 |
| 20260507045820 | 46 | 49 | 2.6 | 6.1 | 0.08 | 0.83 | 0.16 | 95 | 1009.5 |
| 20260507045321 | 46 | 356 | 2.6 | 7.8 | 0.08 | 0.83 | 0.16 | 95 | 1009.4 |
| 20260507044841 | 46 | 16 | 2.6 | 7.8 | 0.08 | 0.83 | 0.16 | 95 | 1009.4 |
| 20260507044321 | 46 | 61 | 3.5 | 8.7 | 0.04 | 0.79 | 0.15 | 95 | 1009.2 |
| 20260507043822 | 46 | 44 | 4.3 | 9.6 | 0.08 | 0.79 | 0.15 | 95 | 1009.1 |
| 20260507043324 | 46 | 32 | 3.5 | 9.6 | 0.08 | 0.79 | 0.15 | 95 | 1009.0 |
| 20260507042824 | 46 | 8 | 2.6 | 8.7 | 0.08 | 0.79 | 0.15 | 95 | 1008.9 |
| 20260507042320 | 47 | 53 | 4.3 | 8.7 | 0.12 | 0.79 | 0.15 | 95 | 1008.9 |
| 20260507041820 | 46 | 40 | 2.6 | 8.7 | 0.16 | 0.79 | 0.15 | 95 | 1009.0 |
| 20260507041321 | 47 | 49 | 1.7 | 7.0 | 0.16 | 0.79 | 0.15 | 95 | 1008.9 |
| 20260507040822 | 47 | 120 | 3.5 | 8.7 | 0.16 | 0.75 | 0.14 | 95 | 1008.7 |
| 20260507040322 | 47 | 25 | 3.5 | 10.4 | 0.20 | 0.75 | 0.14 | 95 | 1008.6 |
| 20260507035822 | 46 | 40 | 3.5 | 10.4 | 0.24 | 0.75 | 0.14 | 95 | 1008.6 |
| 20260507035322 | 46 | 38 | 4.3 | 10.4 | 0.24 | 0.75 | 0.14 | 95 | 1008.5 |
| 20260507034823 | 46 | 19 | 5.2 | 10.4 | 0.28 | 0.75 | 0.14 | 95 | 1008.5 |
| 20260507034324 | 47 | 33 | 4.3 | 10.4 | 0.28 | 0.75 | 0.14 | 95 | 1008.5 |
| 20260507033825 | 47 | 52 | 3.5 | 8.7 | 0.24 | 0.71 | 0.13 | 95 | 1008.4 |
| 20260507033327 | 47 | 18 | 2.6 | 8.7 | 0.28 | 0.71 | 0.13 | 95 | 1008.3 |
| 20260507032832 | 47 | 20 | 3.5 | 8.7 | 0.28 | 0.71 | 0.13 | 95 | 1008.4 |
| 20260507032315 | 47 | 45 | 4.3 | 9.6 | 0.28 | 0.67 | 0.13 | 95 | 1008.3 |
| 20260507031837 | 47 | 46 | 6.1 | 9.6 | 0.28 | 0.63 | 0.12 | 95 | 1008.3 |
| 20260507031319 | 47 | 32 | 2.6 | 10.4 | 0.31 | 0.63 | 0.12 | 95 | 1008.3 |
| 20260507030822 | 47 | 39 | 5.2 | 11.3 | 0.31 | 0.59 | 0.11 | 95 | 1008.2 |
| 20260507030324 | 47 | 22 | 4.3 | 10.4 | 0.28 | 0.55 | 0.10 | 95 | 1008.2 |
| 20260507025827 | 48 | 52 | 6.1 | 11.3 | 0.28 | 0.51 | 0.09 | 94 | 1008.2 |
| 20260507025330 | 48 | 32 | 4.3 | 11.3 | 0.28 | 0.51 | 0.09 | 94 | 1008.2 |
| 20260507024831 | 48 | 345 | 4.3 | 7.8 | 0.28 | 0.47 | 0.09 | 95 | 1008.1 |
| 20260507024331 | 48 | 53 | 3.5 | 8.7 | 0.31 | 0.47 | 0.09 | 94 | 1008.0 |
| 20260507023813 | 48 | 44 | 4.3 | 8.7 | 0.28 | 0.43 | 0.08 | 94 | 1008.1 |
| 20260507023315 | 48 | 32 | 5.2 | 10.4 | 0.31 | 0.43 | 0.08 | 94 | 1008.1 |
| 20260507022838 | 48 | 35 | 4.3 | 10.4 | 0.35 | 0.43 | 0.08 | 94 | 1008.0 |
| 20260507022317 | 48 | 31 | 5.2 | 9.6 | 0.31 | 0.39 | 0.07 | 94 | 1008.0 |
| 20260507021817 | 48 | 35 | 5.2 | 8.7 | 0.31 | 0.35 | 0.06 | 94 | 1008.1 |
| 20260507021318 | 48 | 51 | 3.5 | 7.0 | 0.28 | 0.31 | 0.06 | 94 | 1008.2 |
| 20260507020819 | 48 | 54 | 4.3 | 7.0 | 0.24 | 0.28 | 0.05 | 93 | 1008.2 |
| 20260507020321 | 48 | 25 | 2.6 | 7.0 | 0.24 | 0.28 | 0.05 | 93 | 1008.1 |
| 20260507015821 | 48 | 50 | 3.5 | 8.7 | 0.20 | 0.31 | 0.04 | 93 | 1008.2 |
| 20260507015321 | 48 | 33 | 4.3 | 7.8 | 0.20 | 0.31 | 0.04 | 93 | 1008.3 |
| 20260507014826 | 48 | 56 | 5.2 | 7.8 | 0.16 | 0.28 | 0.03 | 93 | 1008.2 |
| 20260507014329 | 48 | 58 | 2.6 | 6.1 | 0.12 | 0.24 | 0.02 | 93 | 1008.2 |
| 20260507013832 | 48 | 47 | 2.6 | 6.1 | 0.12 | 0.24 | 0.02 | 93 | 1008.2 |
| 20260507013315 | 48 | 48 | 3.5 | 7.0 | 0.08 | 0.20 | 0.02 | 92 | 1008.2 |
| 20260507012815 | 48 | 25 | 4.3 | 7.0 | 0.04 | 0.16 | 0.01 | 92 | 1008.2 |
| 20260507012314 | 48 | 51 | 1.7 | 7.0 | 0.04 | 0.16 | 0.01 | 92 | 1008.3 |
| 20260507011835 | 48 | 44 | 2.6 | 7.0 | 0.00 | 0.12 | 0.00 | 92 | 1008.2 |
| 20260507011313 | 48 | 56 | 3.5 | 6.1 | 0.00 | 0.12 | 0.00 | 92 | 1008.2 |
| 20260507010833 | 48 | 16 | 3.5 | 7.0 | 0.00 | 0.12 | 0.00 | 91 | 1008.2 |
| 20260507010334 | 48 | 34 | 3.5 | 7.0 | 0.00 | 0.12 | 0.00 | 91 | 1008.1 |
| 20260507005817 | 48 | 73 | 3.5 | 7.0 | 0.00 | 0.87 | 0.00 | 91 | 1008.0 |
| 20260507005319 | 48 | 49 | 3.5 | 9.6 | 0.00 | 0.87 | 0.00 | 91 | 1008.0 |
| 20260507004821 | 48 | 48 | 4.3 | 9.6 | 0.00 | 0.87 | 0.00 | 91 | 1007.9 |
| 20260507004324 | 48 | 58 | 5.2 | 7.8 | 0.00 | 0.87 | 0.00 | 91 | 1007.8 |
| 20260507003827 | 49 | 32 | 2.6 | 7.0 | 0.00 | 0.87 | 0.00 | 91 | 1007.9 |
| 20260507003329 | 49 | 42 | 3.5 | 7.8 | 0.00 | 0.87 | 0.00 | 91 | 1007.9 |
| 20260507002830 | 49 | 15 | 3.5 | 7.0 | 0.00 | 0.87 | 0.00 | 91 | 1007.8 |
| 20260507002314 | 49 | 141 | 3.5 | 9.6 | 0.00 | 0.87 | 0.00 | 90 | 1007.8 |
| 20260507001818 | 49 | 64 | 4.3 | 9.6 | 0.00 | 0.87 | 0.00 | 90 | 1007.8 |
| 20260507001322 | 49 | 61 | 5.2 | 8.7 | 0.00 | 0.87 | 0.00 | 90 | 1007.8 |
| 20260507000824 | 49 | 28 | 3.5 | 10.4 | 0.00 | 0.87 | 0.00 | 90 | 1007.7 |
| 20260507000345 | 49 | 355 | 4.3 | 10.4 | 0.00 | 0.87 | 0.00 | 90 | 1007.7 |
| 20260506235826 | 49 | 19 | 3.5 | 7.8 | 0.00 | 1.93 | 0.00 | 90 | 1007.6 |
| 20260506235328 | 49 | 333 | 4.3 | 7.8 | 0.00 | 1.93 | 0.00 | 90 | 1007.7 |
| 20260506234830 | 49 | 47 | 2.6 | 7.0 | 0.00 | 1.93 | 0.00 | 90 | 1007.7 |
| 20260506234313 | 49 | 27 | 3.5 | 7.0 | 0.00 | 1.93 | 0.00 | 90 | 1007.5 |
| 20260506233815 | 49 | 71 | 2.6 | 10.4 | 0.00 | 1.93 | 0.00 | 90 | 1007.7 |
| 20260506233317 | 49 | 46 | 4.3 | 10.4 | 0.00 | 1.93 | 0.00 | 90 | 1007.6 |
| 20260506232838 | 49 | 338 | 4.3 | 8.7 | 0.00 | 1.93 | 0.00 | 90 | 1007.7 |
| 20260506232337 | 49 | 56 | 4.3 | 10.4 | 0.00 | 1.93 | 0.00 | 90 | 1007.6 |
| 20260506231816 | 49 | 352 | 4.3 | 11.3 | 0.00 | 1.93 | 0.00 | 90 | 1007.6 |
| 20260506231336 | 49 | 15 | 5.2 | 11.3 | 0.00 | 1.93 | 0.00 | 90 | 1007.5 |
| 20260506230853 | 50 | 57 | 3.5 | 8.7 | 0.00 | 1.93 | 0.00 | 90 | 1007.6 |
| 20260506230351 | 50 | 4 | 4.3 | 8.7 | 0.00 | 1.93 | 0.00 | 90 | 1007.6 |
| 20260506225830 | 50 | 14 | 4.3 | 8.7 | 0.00 | 2.95 | 0.00 | 90 | 1007.5 |
| 20260506224838 | 50 | 38 | 4.3 | 8.7 | 0.00 | 2.95 | 0.00 | 90 | 1007.3 |
| 20260506224318 | 50 | 8 | 3.5 | 8.7 | 0.00 | 2.95 | 0.00 | 90 | 1007.4 |
| 20260506223819 | 50 | 6 | 5.2 | 8.7 | 0.00 | 2.95 | 0.00 | 89 | 1007.4 |
| 20260506223319 | 50 | 49 | 4.3 | 11.3 | 0.00 | 2.95 | 0.00 | 89 | 1007.4 |
| 20260506222820 | 50 | 68 | 4.3 | 11.3 | 0.00 | 2.95 | 0.00 | 89 | 1007.4 |
| 20260506222320 | 50 | 18 | 3.5 | 7.8 | 0.00 | 2.95 | 0.00 | 89 | 1007.5 |
| 20260506221840 | 50 | 54 | 2.6 | 9.6 | 0.00 | 2.95 | 0.00 | 89 | 1007.4 |
| 20260506221318 | 50 | 28 | 4.3 | 9.6 | 0.00 | 2.95 | 0.00 | 89 | 1007.3 |
| 20260506220820 | 51 | 44 | 3.5 | 10.4 | 0.00 | 2.95 | 0.00 | 89 | 1007.1 |
| 20260506220406 | 51 | 20 | 4.3 | 10.4 | 0.00 | 2.95 | 0.00 | 89 | 1007.1 |
| 20260506215822 | 51 | 53 | 3.5 | 11.3 | 0.00 | 3.03 | 0.59 | 89 | 1007.0 |
| 20260506215345 | 51 | 43 | 5.2 | 11.3 | 0.00 | 3.03 | 0.59 | 89 | 1006.9 |
| 20260506214823 | 51 | 35 | 5.2 | 11.3 | 0.00 | 3.03 | 0.59 | 89 | 1006.9 |
| 20260506214328 | 51 | 47 | 3.5 | 8.7 | 0.00 | 3.03 | 0.59 | 89 | 1006.8 |
| 20260506213813 | 51 | 30 | 5.2 | 8.7 | 0.00 | 3.03 | 0.59 | 89 | 1006.9 |
| 20260506213336 | 51 | 51 | 3.5 | 7.8 | 0.00 | 3.03 | 0.59 | 89 | 1006.9 |
| 20260506212819 | 51 | 33 | 2.6 | 12.2 | 0.00 | 3.03 | 0.59 | 89 | 1006.8 |
| 20260506212342 | 51 | 41 | 6.1 | 12.2 | 0.00 | 3.03 | 0.59 | 89 | 1006.9 |
| 20260506211824 | 52 | 36 | 3.5 | 9.6 | 0.00 | 3.03 | 0.59 | 89 | 1006.8 |
| 20260506211324 | 52 | 4 | 4.3 | 9.6 | 0.00 | 3.03 | 0.59 | 89 | 1006.9 |
| 20260506210824 | 52 | 58 | 4.3 | 8.7 | 0.00 | 3.03 | 0.59 | 89 | 1006.7 |
| 20260506210324 | 52 | 39 | 5.2 | 8.7 | 0.00 | 3.03 | 0.59 | 89 | 1006.6 |
| 20260506205825 | 52 | 61 | 2.6 | 8.7 | 0.00 | 3.03 | 0.59 | 89 | 1006.7 |
| 20260506205326 | 52 | 42 | 4.3 | 9.6 | 0.00 | 3.03 | 0.59 | 89 | 1006.7 |
| 20260506204827 | 52 | 28 | 2.6 | 9.6 | 0.00 | 3.03 | 0.59 | 89 | 1006.7 |
| 20260506204328 | 52 | 20 | 4.3 | 8.7 | 0.00 | 3.03 | 0.59 | 89 | 1006.7 |
| 20260506203829 | 52 | 56 | 4.3 | 8.7 | 0.00 | 3.03 | 0.59 | 89 | 1006.7 |
| 20260506203328 | 52 | 55 | 3.5 | 9.6 | 0.00 | 3.03 | 0.59 | 89 | 1006.7 |
| 20260506202829 | 52 | 42 | 4.3 | 9.6 | 0.00 | 3.03 | 0.59 | 89 | 1006.8 |
| 20260506202331 | 52 | 23 | 4.3 | 11.3 | 0.00 | 3.03 | 0.59 | 88 | 1006.7 |
| 20260506201814 | 52 | 45 | 5.2 | 11.3 | 0.00 | 3.03 | 0.59 | 88 | 1006.9 |
| 20260506201316 | 53 | 359 | 2.6 | 9.6 | 0.00 | 3.03 | 0.59 | 89 | 1006.9 |
| 20260506200837 | 53 | 15 | 4.3 | 9.6 | 0.00 | 3.03 | 0.59 | 89 | 1006.8 |
| 20260506200315 | 53 | 65 | 4.3 | 9.6 | 0.00 | 3.03 | 0.59 | 89 | 1006.7 |
| 20260506195835 | 53 | 50 | 3.5 | 9.6 | 0.00 | 3.03 | 0.59 | 89 | 1006.5 |
| 20260506195312 | 53 | 49 | 4.3 | 8.7 | 0.00 | 3.03 | 0.59 | 89 | 1006.4 |
| 20260506194815 | 53 | 53 | 4.3 | 8.7 | 0.00 | 3.03 | 0.59 | 88 | 1006.5 |
| 20260506194337 | 53 | 51 | 5.2 | 11.3 | 0.00 | 3.03 | 0.59 | 88 | 1006.3 |
| 20260506193818 | 53 | 34 | 4.3 | 11.3 | 0.00 | 3.03 | 0.59 | 88 | 1006.2 |
| 20260506193319 | 54 | 74 | 5.2 | 9.6 | 0.00 | 3.03 | 0.59 | 87 | 1006.2 |
| 20260506192822 | 54 | 32 | 4.3 | 9.6 | 0.00 | 3.03 | 0.59 | 88 | 1006.1 |
| 20260506192325 | 54 | 51 | 3.5 | 10.4 | 0.00 | 3.03 | 0.59 | 88 | 1006.1 |
| 20260506191828 | 54 | 47 | 6.1 | 10.4 | 0.00 | 3.03 | 0.59 | 87 | 1006.1 |
| 20260506191329 | 54 | 18 | 4.3 | 8.7 | 0.00 | 3.03 | 0.59 | 88 | 1006.0 |
| 20260506190832 | 54 | 17 | 3.5 | 9.6 | 0.00 | 3.03 | 0.59 | 87 | 1006.0 |
| 20260506190331 | 54 | 47 | 5.2 | 9.6 | 0.00 | 3.03 | 0.59 | 87 | 1005.9 |
| 20260506185833 | 55 | 342 | 4.3 | 9.6 | 0.00 | 3.03 | 0.59 | 87 | 1005.9 |
| 20260506185351 | 55 | 68 | 2.6 | 9.6 | 0.00 | 3.03 | 0.59 | 87 | 1005.9 |
| 20260506184852 | 55 | 61 | 3.5 | 10.4 | 0.00 | 3.03 | 0.59 | 87 | 1005.8 |
| 20260506184313 | 55 | 16 | 6.1 | 10.4 | 0.00 | 3.03 | 0.59 | 87 | 1005.9 |
| 20260506183814 | 55 | 66 | 6.1 | 9.6 | 0.00 | 3.03 | 0.59 | 87 | 1005.8 |
| 20260506183317 | 55 | 50 | 4.3 | 9.6 | 0.00 | 3.03 | 0.59 | 87 | 1005.9 |
| 20260506182905 | 55 | 63 | 5.2 | 12.2 | 0.00 | 3.03 | 0.59 | 87 | 1005.8 |
| 20260506182323 | 55 | 78 | 7.8 | 12.2 | 0.00 | 3.03 | 0.59 | 87 | 1005.8 |
| 20260506181847 | 56 | 50 | 3.5 | 7.8 | 0.00 | 3.03 | 0.59 | 87 | 1005.8 |
| 20260506181331 | 56 | 44 | 3.5 | 9.6 | 0.00 | 3.03 | 0.59 | 86 | 1005.7 |
| 20260506180835 | 56 | 28 | 4.3 | 9.6 | 0.00 | 3.03 | 0.59 | 86 | 1005.7 |
| 20260506180316 | 56 | 22 | 4.3 | 7.8 | 0.00 | 3.03 | 0.59 | 86 | 1005.6 |
| 20260506175820 | 56 | 36 | 3.5 | 7.8 | 0.00 | 3.03 | 0.59 | 86 | 1005.6 |
| 20260506175322 | 56 | 22 | 3.5 | 11.3 | 0.00 | 3.03 | 0.59 | 86 | 1005.6 |
| 20260506174823 | 56 | 41 | 3.5 | 10.4 | 0.00 | 3.03 | 0.59 | 85 | 1005.5 |
| 20260506174325 | 57 | 34 | 5.2 | 10.4 | 0.00 | 3.03 | 0.59 | 85 | 1005.5 |
| 20260506173825 | 57 | 53 | 6.1 | 11.3 | 0.00 | 3.03 | 0.59 | 85 | 1005.5 |
| 20260506173325 | 57 | 26 | 3.5 | 10.4 | 0.00 | 3.03 | 0.59 | 85 | 1005.4 |
| 20260506172825 | 57 | 338 | 4.3 | 10.4 | 0.00 | 3.03 | 0.59 | 84 | 1005.3 |
| 20260506172327 | 57 | 35 | 4.3 | 9.6 | 0.00 | 3.03 | 0.59 | 83 | 1005.4 |
| 20260506171829 | 58 | 29 | 5.2 | 9.6 | 0.00 | 3.03 | 0.59 | 83 | 1005.3 |
| 20260506171331 | 58 | 17 | 5.2 | 10.4 | 0.00 | 3.03 | 0.59 | 83 | 1005.2 |
| 20260506170815 | 58 | 27 | 5.2 | 10.4 | 0.00 | 3.03 | 0.59 | 82 | 1005.1 |
| 20260506170319 | 58 | 45 | 4.3 | 9.6 | 0.00 | 3.03 | 0.59 | 82 | 1005.0 |
| 20260506165819 | 59 | 31 | 4.3 | 9.6 | 0.00 | 3.03 | 0.59 | 83 | 1004.9 |
| 20260506165324 | 59 | 56 | 3.5 | 7.8 | 0.00 | 3.03 | 0.59 | 83 | 1005.0 |
| 20260506164828 | 59 | 44 | 5.2 | 10.4 | 0.00 | 3.03 | 0.59 | 83 | 1005.0 |
| 20260506164331 | 59 | 49 | 5.2 | 11.3 | 0.00 | 3.03 | 0.59 | 83 | 1005.0 |
| 20260506163830 | 59 | 30 | 6.1 | 11.3 | 0.00 | 3.03 | 0.59 | 81 | 1005.0 |
| 20260506163330 | 60 | 40 | 5.2 | 10.4 | 0.00 | 3.03 | 0.59 | 81 | 1005.0 |
| 20260506162830 | 60 | 25 | 4.3 | 10.4 | 0.00 | 3.03 | 0.59 | 81 | 1005.0 |
| 20260506162331 | 60 | 21 | 4.3 | 7.8 | 0.00 | 3.03 | 0.59 | 80 | 1005.2 |
| 20260506161830 | 60 | 11 | 4.3 | 7.0 | 0.00 | 3.03 | 0.59 | 80 | 1005.2 |
| 20260506161330 | 60 | 28 | 4.3 | 7.8 | 0.00 | 3.03 | 0.59 | 80 | 1005.2 |
| 20260506160831 | 60 | 48 | 2.6 | 7.8 | 0.00 | 3.03 | 0.59 | 80 | 1005.2 |
| 20260506160313 | 60 | 28 | 3.5 | 9.6 | 0.00 | 3.03 | 0.59 | 80 | 1005.2 |
| 20260506155835 | 60 | 70 | 5.2 | 10.4 | 0.00 | 3.03 | 0.59 | 80 | 1005.1 |
| 20260506155316 | 60 | 35 | 4.3 | 11.3 | 0.00 | 3.03 | 0.59 | 80 | 1005.2 |
| 20260506154832 | 60 | 20 | 7.0 | 11.3 | 0.00 | 3.03 | 0.59 | 79 | 1005.2 |
| 20260506154314 | 61 | 3 | 6.1 | 11.3 | 0.00 | 3.03 | 0.59 | 79 | 1005.3 |
| 20260506153816 | 61 | 31 | 4.3 | 9.6 | 0.00 | 3.03 | 0.59 | 79 | 1005.4 |
| 20260506153319 | 62 | 49 | 5.2 | 9.6 | 0.00 | 3.03 | 0.59 | 80 | 1005.3 |
| 20260506152821 | 61 | 19 | 5.2 | 9.6 | 0.00 | 3.03 | 0.59 | 80 | 1005.4 |
| 20260506152324 | 61 | 48 | 5.2 | 10.4 | 0.00 | 3.03 | 0.59 | 80 | 1005.3 |
| 20260506151845 | 60 | 68 | 5.2 | 10.4 | 0.00 | 3.03 | 0.59 | 81 | 1005.3 |
| 20260506151347 | 61 | 55 | 6.1 | 9.6 | 0.00 | 3.03 | 0.59 | 80 | 1005.3 |
| 20260506150849 | 61 | 23 | 4.3 | 9.6 | 0.00 | 3.03 | 0.59 | 81 | 1005.2 |
| 20260506150332 | 61 | 43 | 5.2 | 11.3 | 0.00 | 3.03 | 0.59 | 80 | 1005.2 |
| 20260506145816 | 61 | 99 | 4.3 | 12.2 | 0.00 | 3.03 | 0.59 | 80 | 1005.2 |
| 20260506145318 | 62 | 357 | 5.2 | 12.2 | 0.00 | 3.03 | 0.59 | 79 | 1005.2 |
| 20260506144820 | 61 | 5 | 3.5 | 12.2 | 0.00 | 3.03 | 0.59 | 80 | 1005.2 |
| 20260506144341 | 62 | 341 | 6.1 | 12.2 | 0.00 | 3.03 | 0.59 | 79 | 1005.1 |
| 20260506143817 | 62 | 18 | 7.0 | 11.3 | 0.00 | 3.03 | 0.59 | 78 | 1005.1 |
| 20260506142818 | 62 | 13 | 4.3 | 11.3 | 0.00 | 3.03 | 0.59 | 79 | 1005.0 |
| 20260506142315 | 62 | 18 | 5.2 | 11.3 | 0.00 | 3.03 | 0.59 | 79 | 1005.1 |
| 20260506141815 | 63 | 19 | 3.5 | 8.7 | 0.00 | 3.03 | 0.59 | 78 | 1005.1 |
| 20260506141316 | 63 | 360 | 4.3 | 9.6 | 0.00 | 3.03 | 0.59 | 77 | 1005.3 |
| 20260506140817 | 63 | 53 | 4.3 | 9.6 | 0.00 | 3.03 | 0.59 | 77 | 1005.2 |
| 20260506140317 | 63 | 17 | 0.9 | 11.3 | 0.00 | 3.03 | 0.59 | 79 | 1005.3 |
| 20260506135836 | 63 | 19 | 7.8 | 11.3 | 0.00 | 3.03 | 0.59 | 77 | 1005.2 |
| 20260506135316 | 63 | 357 | 3.5 | 9.6 | 0.00 | 3.03 | 0.59 | 78 | 1005.2 |
| 20260506134819 | 62 | 296 | 3.5 | 9.6 | 0.00 | 3.03 | 0.59 | 78 | 1005.2 |
| 20260506134321 | 62 | 23 | 6.1 | 9.6 | 0.00 | 3.03 | 0.59 | 77 | 1005.3 |
| 20260506133821 | 62 | 285 | 3.5 | 9.6 | 0.00 | 3.03 | 0.59 | 77 | 1005.3 |
| 20260506133321 | 63 | 342 | 2.6 | 9.6 | 0.00 | 3.03 | 0.59 | 77 | 1005.3 |
| 20260506132821 | 63 | 19 | 4.3 | 8.7 | 0.00 | 3.03 | 0.59 | 76 | 1005.2 |
| 20260506132322 | 63 | 335 | 4.3 | 7.0 | 0.00 | 3.03 | 0.59 | 75 | 1005.2 |
| 20260506131824 | 64 | 9 | 2.6 | 6.1 | 0.00 | 3.03 | 0.59 | 77 | 1005.1 |
| 20260506131346 | 64 | 296 | 1.7 | 8.7 | 0.00 | 3.03 | 0.59 | 77 | 1005.2 |
| 20260506130847 | 64 | 341 | 4.3 | 10.4 | 0.00 | 3.03 | 0.59 | 76 | 1005.1 |
| 20260506130329 | 64 | 348 | 5.2 | 13.0 | 0.00 | 3.03 | 0.59 | 77 | 1005.0 |
| 20260506125831 | 65 | 12 | 5.2 | 13.0 | 0.00 | 3.03 | 0.59 | 74 | 1005.1 |
| 20260506125313 | 64 | 12 | 5.2 | 13.0 | 0.00 | 3.03 | 0.59 | 75 | 1005.2 |
| 20260506124813 | 64 | 319 | 7.8 | 13.0 | 0.00 | 3.03 | 0.59 | 76 | 1005.0 |
| 20260506124336 | 64 | 345 | 3.5 | 11.3 | 0.00 | 3.03 | 0.59 | 77 | 1005.0 |
| 20260506123817 | 64 | 2 | 5.2 | 12.2 | 0.00 | 3.03 | 0.59 | 76 | 1005.0 |
| 20260506123320 | 64 | 288 | 4.3 | 12.2 | 0.00 | 3.03 | 0.59 | 77 | 1004.9 |
| 20260506122823 | 64 | 334 | 3.5 | 7.8 | 0.00 | 3.03 | 0.59 | 77 | 1004.9 |
| 20260506122328 | 63 | 272 | 3.5 | 7.8 | 0.00 | 3.03 | 0.59 | 77 | 1005.0 |
| 20260506121831 | 63 | 284 | 3.5 | 7.8 | 0.00 | 3.03 | 0.59 | 78 | 1004.9 |
| 20260506121312 | 63 | 255 | 3.5 | 8.7 | 0.00 | 3.03 | 0.59 | 77 | 1005.0 |
| 20260506120815 | 63 | 276 | 4.3 | 9.6 | 0.00 | 3.03 | 0.59 | 78 | 1005.0 |
| 20260506120319 | 63 | 291 | 4.3 | 9.6 | 0.00 | 3.03 | 0.59 | 78 | 1004.9 |
| 20260506115820 | 62 | 255 | 7.8 | 9.6 | 0.00 | 3.03 | 0.59 | 77 | 1004.9 |
| 20260506115321 | 63 | 347 | 3.5 | 9.6 | 0.00 | 3.03 | 0.59 | 78 | 1004.9 |
| 20260506114822 | 62 | 319 | 4.3 | 12.2 | 0.00 | 3.03 | 0.59 | 78 | 1004.9 |
| 20260506114323 | 62 | 310 | 4.3 | 12.2 | 0.00 | 3.03 | 0.59 | 79 | 1005.0 |
| 20260506113824 | 62 | 273 | 4.3 | 14.8 | 0.00 | 3.03 | 0.59 | 79 | 1004.9 |
| 20260506113344 | 62 | 16 | 7.0 | 14.8 | 0.00 | 3.03 | 0.59 | 78 | 1004.9 |
| 20260506112824 | 63 | 4 | 6.1 | 14.8 | 0.00 | 3.03 | 0.59 | 78 | 1004.9 |
| 20260506112327 | 63 | 281 | 4.3 | 14.8 | 0.00 | 3.03 | 0.59 | 79 | 1004.8 |
| 20260506111832 | 63 | 345 | 7.8 | 13.0 | 0.00 | 3.03 | 0.59 | 78 | 1004.7 |
| 20260506111315 | 63 | 273 | 5.2 | 13.0 | 0.00 | 3.03 | 0.59 | 77 | 1004.7 |
| 20260506110820 | 63 | 286 | 7.0 | 13.0 | 0.00 | 3.03 | 0.59 | 78 | 1004.6 |
| 20260506110321 | 64 | 342 | 6.1 | 11.3 | 0.00 | 3.03 | 0.59 | 78 | 1004.6 |
| 20260506105842 | 64 | 279 | 4.3 | 12.2 | 0.00 | 3.03 | 0.59 | 78 | 1004.5 |
| 20260506105321 | 63 | 257 | 5.2 | 13.0 | 0.00 | 3.03 | 0.59 | 78 | 1004.5 |
| 20260506104823 | 63 | 279 | 5.2 | 11.3 | 0.00 | 3.03 | 0.59 | 78 | 1004.4 |
| 20260506104327 | 63 | 267 | 5.2 | 11.3 | 0.00 | 3.03 | 0.59 | 79 | 1004.4 |
| 20260506103831 | 63 | 322 | 4.3 | 13.9 | 0.00 | 3.03 | 0.59 | 79 | 1004.5 |
| 20260506103314 | 62 | 250 | 6.1 | 13.9 | 0.00 | 3.03 | 0.59 | 81 | 1004.4 |
| 20260506102817 | 62 | 295 | 4.3 | 13.0 | 0.00 | 3.03 | 0.59 | 81 | 1004.5 |
| 20260506102319 | 63 | 283 | 7.0 | 13.0 | 0.00 | 3.03 | 0.59 | 80 | 1004.3 |
| 20260506101821 | 63 | 19 | 3.5 | 10.4 | 0.00 | 3.03 | 0.59 | 83 | 1004.3 |
| 20260506101323 | 62 | 254 | 4.3 | 9.6 | 0.00 | 3.03 | 0.59 | 83 | 1004.3 |
| 20260506100823 | 61 | 330 | 3.5 | 17.4 | 0.00 | 3.03 | 0.59 | 84 | 1004.2 |
| 20260506100323 | 61 | 272 | 8.7 | 17.4 | 0.00 | 3.03 | 0.59 | 82 | 1004.2 |
| 20260506095825 | 62 | 312 | 5.2 | 14.8 | 0.00 | 3.03 | 0.59 | 80 | 1004.1 |
| 20260506095328 | 63 | 300 | 8.7 | 14.8 | 0.00 | 3.03 | 0.59 | 79 | 1004.0 |
| 20260506094831 | 63 | 292 | 7.8 | 14.8 | 0.00 | 3.03 | 0.59 | 80 | 1003.9 |
| 20260506094327 | 62 | 309 | 7.0 | 14.8 | 0.00 | 3.03 | 0.59 | 81 | 1003.7 |
| 20260506093830 | 62 | 275 | 6.1 | 15.6 | 0.00 | 3.03 | 0.59 | 82 | 1003.7 |
| 20260506093314 | 61 | 276 | 6.1 | 15.6 | 0.00 | 3.03 | 0.59 | 84 | 1003.6 |
| 20260506092816 | 61 | 280 | 7.8 | 15.6 | 0.00 | 3.03 | 0.59 | 83 | 1003.5 |
| 20260506092315 | 61 | 271 | 6.1 | 19.1 | 0.00 | 3.03 | 0.59 | 83 | 1003.6 |
| 20260506091816 | 61 | 277 | 7.0 | 19.1 | 0.00 | 3.03 | 0.59 | 82 | 1003.4 |
| 20260506090819 | 62 | 307 | 7.8 | 17.4 | 0.00 | 3.03 | 0.59 | 83 | 1003.1 |
| 20260506090322 | 62 | 299 | 4.3 | 17.4 | 0.00 | 3.03 | 0.59 | 83 | 1003.1 |
| 20260506085825 | 62 | 241 | 9.6 | 17.4 | 0.00 | 3.15 | 0.59 | 82 | 1003.1 |
| 20260506085346 | 61 | 284 | 6.1 | 17.4 | 0.00 | 3.15 | 0.59 | 85 | 1003.0 |
| 20260506084827 | 61 | 259 | 8.7 | 17.4 | 0.00 | 3.15 | 0.59 | 85 | 1003.0 |
| 20260506084329 | 60 | 267 | 5.2 | 17.4 | 0.00 | 3.15 | 0.59 | 87 | 1002.8 |
| 20260506083831 | 61 | 266 | 7.0 | 15.6 | 0.00 | 3.15 | 0.59 | 87 | 1002.8 |
| 20260506083332 | 60 | 255 | 5.2 | 15.6 | 0.00 | 3.15 | 0.59 | 90 | 1002.8 |
| 20260506082812 | 59 | 236 | 4.3 | 8.7 | 0.00 | 3.15 | 0.59 | 90 | 1003.0 |
| 20260506082313 | 59 | 271 | 4.3 | 7.8 | 0.00 | 3.15 | 0.59 | 91 | 1002.9 |
| 20260506081813 | 59 | 262 | 3.5 | 12.2 | 0.00 | 3.15 | 0.59 | 92 | 1002.9 |
| 20260506081333 | 58 | 257 | 7.0 | 12.2 | 0.00 | 3.15 | 0.59 | 92 | 1002.9 |
| 20260506080813 | 58 | 275 | 1.7 | 7.0 | 0.00 | 3.15 | 0.59 | 92 | 1002.8 |
| 20260506080333 | 58 | 249 | 3.5 | 7.8 | 0.00 | 3.15 | 0.59 | 92 | 1002.9 |
| 20260506073329 | 57 | 224 | 3.5 | 6.1 | 0.00 | 3.23 | 0.59 | 94 | 1002.8 |
| 20260506072852 | 57 | 240 | 2.6 | 6.1 | 0.00 | 3.23 | 0.59 | 94 | 1002.8 |
| 20260506072333 | 57 | 271 | 2.6 | 5.2 | 0.00 | 3.23 | 0.59 | 95 | 1002.8 |
| 20260506071815 | 57 | 219 | 1.7 | 6.1 | 0.00 | 3.23 | 0.59 | 95 | 1002.8 |
| 20260506071338 | 57 | 217 | 2.6 | 6.1 | 0.00 | 3.23 | 0.59 | 95 | 1002.9 |
| 20260506070820 | 57 | 248 | 2.6 | 6.1 | 0.00 | 3.23 | 0.59 | 95 | 1002.9 |
| 20260506070323 | 57 | 244 | 2.6 | 6.1 | 0.00 | 3.23 | 0.59 | 95 | 1002.9 |
| 20260506062318 | 57 | 229 | 0.9 | 3.5 | 0.00 | 3.23 | 0.59 | 96 | 1002.8 |
| 20260506061821 | 57 | 188 | 0.9 | 3.5 | 0.00 | 3.23 | 0.59 | 97 | 1002.8 |
| 20260506061323 | 57 | 201 | 0.9 | 4.3 | 0.00 | 3.23 | 0.59 | 97 | 1002.9 |
| 20260506060826 | 57 | 148 | 1.7 | 4.3 | 0.00 | 3.23 | 0.59 | 97 | 1002.8 |